Regional Weather Roundup
Issued by NWS Cleveland, OH

Home | Current Version | Previous Version | Text Only | Print | Product List | Glossary Off
Versions: 1 2 3 4 5 6 7 8 9 10 11 12 13 14 15 16 17 18 19 20 21 22 23 24 25 26 27 28 29 30 31 32 33 34 35 36 37 38 39 40 41 42 43 44 45 46 47 48 49 50

000
ASUS41 KCLE 191010
RWRCLE
OHIO REGIONAL WEATHER ROUNDUP
NATIONAL WEATHER SERVICE WILMINGTON, OH
500 AM EST MON FEB 19 2018

NOTE: "FAIR" INDICATES FEW OR NO CLOUDS BELOW 12,000 FEET WITH NO
SIGNIFICANT WEATHER AND/OR OBSTRUCTIONS TO VISIBILITY.

OHZ001>008-015>018-024>027-034-035-043-044-191100-
   NORTHWEST OHIO

CITY           SKY/WX    TMP DP  RH WIND       PRES   REMARKS
DEFIANCE       LGT RAIN  38  33  82 SE7       29.97S
FINDLAY        RAIN      38  31  76 S13       30.02R
TOLEDO EXPRESS LGT RAIN  37  32  82 CALM      30.02R
TOLEDO EXEC    CLOUDY    38  30  73 SW7       30.04R
LIMA           LGT RAIN  44  37  76 S15       29.99F
$$

OHZ009>014-019>023-028>033-038-089-191100-
   NORTHEAST OHIO

CITY           SKY/WX    TMP DP  RH WIND       PRES   REMARKS
CLE-HOPKINS    FAIR      43  30  60 S13       30.08S
CLE-LAKEFRONT  CLOUDY    41  28  60 SE22G29   30.05S
CUY CO. ARPT   NOT AVBL
LORAIN-ELYRIA  FAIR      36  26  67 S14       30.05S
ASHTABULA      MOCLDY    38  28  67 S12       30.13R
AKRON-CANTON   CLOUDY    39  28  64 S12       30.09F
WOOSTER        FAIR      38  30  73 S10       30.08F
MANSFIELD      FAIR      38  29  70 S10       30.06S
YOUNGSTOWN     CLOUDY    39  27  62 SE13      30.12F
$$

OHZ042-051>053-060>062-070>072-077>081-191100-
  SOUTHWEST OHIO

CITY           SKY/WX    TMP DP  RH WIND       PRES   REMARKS
CINC-COVINGTON CLOUDY    53  46  77 S16G26    30.06S
CINC-LUNKEN    CLOUDY    46  41  82 W5        30.08F
HAMILTON       LGT RAIN  47  39  74 E3        30.06F
DAYTON         CLOUDY    47  39  74 S15       30.03F
WRIGHT-PAT AFB CLOUDY    48  38  70 S12       30.04F
DAYTON GENERAL CLOUDY    50  41  71 S13       30.04F
WILMINGTON     CLOUDY    47  42  83 S14       30.07F
$$

OHZ036-037-039>041-045>050-054>059-063>069-073>076-082>088-191100-
  CENTRAL AND SOUTHEAST OHIO

CITY           SKY/WX    TMP DP  RH WIND       PRES   REMARKS
COLUMBUS       CLOUDY    42  33  70 S9        30.10R
OSU AIRPORT    CLOUDY    40  33  76 S9        30.09R
BOLTON FIELD   CLOUDY    41  34  77 S9        30.09R
RICKENBACK AFB CLOUDY    43  36  75 S16       30.09R
NEWARK         MOCLDY    43  33  68 S9        30.10R
MARION         MOCLDY    39  30  70 S14       30.05R
LANCASTER      LGT RAIN  47  39  74 S10       30.11R
ZANESVILLE     MOCLDY    41  30  65 S9        30.12R
NEW PHILLY     FAIR      38  28  67 VRB3      30.14R
$$




USA.gov is the U.S. government's official web portal to all federal, state and local government web resources and services.